Regional Weather Roundup
Issued by NWS

Home | Current Version | Previous Version | Graphics & Text | Print | Product List | Glossary Off
Versions: 1 2 3 4 5 6 7 8 9 10 11 12 13 14 15 16 17 18 19 20 21 22 23 24 25 26 27 28 29 30 31 32 33 34 35 36 37 38 39 40 41 42 43 44 45 46 47 48 49 50

000
ASUS43 KMKX 180620
RWRWI

WISCONSIN REGIONAL WEATHER ROUNDUP
NATIONAL WEATHER SERVICE MILWAUKEE/SULLIVAN WI
1200 AM CST THU JAN 18 2018

NOTE: "FAIR" INDICATES FEW OR NO CLOUDS BELOW 12,000 FEET WITH NO
SIGNIFICANT WEATHER AND/OR OBSTRUCTIONS TO VISIBILITY.

WIZ001-002-006>008-014>016-023>028-180700-
NORTHWEST WISCONSIN

CITY           SKY/WX    TMP DP  RH WIND       PRES   REMARKS
SUPERIOR ARPT  FAIR      23  15  73 SW10      29.89R WCI  12
6HR MIN TEMP:  23; 6HR MAX TEMP:  25;

ASHLAND        FAIR      23  14  68 SW12      29.89S WCI  12
6HR MIN TEMP:  23; 6HR MAX TEMP:  25;

HAYWARD        FAIR      16  10  77 S6        29.92R WCI   7
6HR MIN TEMP:  13; 6HR MAX TEMP:  21;

SIREN          FAIR      25  17  72 W12G17    29.94F WCI  14
6HR MIN TEMP:  23; 6HR MAX TEMP:  25;

CUMBERLAND     FAIR      19  12  73 SW9       29.95S WCI   9
RICE LAKE      FAIR      23  16  74 CALM      29.98S
6HR MIN TEMP:  21; 6HR MAX TEMP:  24;

CHETEK         FAIR      22  15  74 W5        29.98R WCI  16
6HR MIN TEMP:  21; 6HR MAX TEMP:  24;

LADYSMITH      FAIR      15  11  82 S6        29.97S WCI   7
6HR MIN TEMP:  16; 6HR MAX TEMP:  21;

EAU CLAIRE     FAIR      23  15  71 SW9       30.00S WCI  13
6HR MIN TEMP:  22; 6HR MAX TEMP:  24; 6HR PCP: TRACE;

MENOMONIE      FAIR      25  16  69 SW12      30.01S WCI  14
6HR MIN TEMP:  23; 6HR MAX TEMP:  26;

NEW RICHMOND   FAIR      19  13  79 S6        30.00F WCI  11
6HR MIN TEMP:  18; 6HR MAX TEMP:  21;

OSCEOLA        FAIR      23  16  74 SW6       30.02S WCI  16
6HR MIN TEMP:  22; 6HR MAX TEMP:  25;

$$

WIZ003>005-009-010-017-018-180700-
NORTH CENTRAL WISCONSIN

CITY           SKY/WX    TMP DP  RH WIND       PRES   REMARKS
MANITOWISH WTR FAIR      17  10  76 SW7       29.87S WCI   7
6HR MIN TEMP:  17; 6HR MAX TEMP:  20;

ARBOR VITAE    FAIR      20  13  76 W9        29.87S WCI   9
6HR MIN TEMP:  20; 6HR MAX TEMP:  22;

WOODRUFF       FAIR      20  13  76 W9        29.87S WCI   9
6HR MIN TEMP:  20; 6HR MAX TEMP:  22;

RHINELANDER    FAIR      19  13  77 W17       29.88F WCI   4
6HR MIN TEMP:  19; 6HR MAX TEMP:  20;

EAGLE RIVER    FAIR      18  11  74 W10       29.85S WCI   6
6HR MIN TEMP:  17; 6HR MAX TEMP:  19;

LAND O LAKES   FAIR      19  13  76 W10G16    29.85F WCI   8
6HR MIN TEMP:  19; 6HR MAX TEMP:  22;

PHILLIPS       FAIR      18  12  78 SW9       29.90S WCI   7
6HR MIN TEMP:  18; 6HR MAX TEMP:  20;

TOMAHAWK       FAIR      20  13  75 W5        29.91F WCI  14
6HR MIN TEMP:  19; 6HR MAX TEMP:  21;

MEDFORD        FAIR      18  11  76 W9        29.94S WCI   6
6HR MIN TEMP:  18; 6HR MAX TEMP:  20;

MERRILL        FAIR      19  12  75 W10       29.94S WCI   7
6HR MIN TEMP:  19; 6HR MAX TEMP:  21;

$$

WIZ029-030-035-036-043>047-180700-
CENTRAL WISCONSIN

CITY           SKY/WX    TMP DP  RH WIND       PRES   REMARKS
WAUSAU         FAIR      20  11  68 SW12      29.94F WCI   8
6HR MIN TEMP:  19; 6HR MAX TEMP:  22;

MOSINEE        FAIR      19  12  73 SW12      29.96F WCI   7
MARSHFIELD     FAIR      19  11  70 W9        29.96F WCI   8
6HR MIN TEMP:  18; 6HR MAX TEMP:  21;

STEVENS POINT  FAIR      18  10  70 W9G16     29.98F WCI   7
6HR MIN TEMP:  18; 6HR MAX TEMP:  21;

WAUPACA        FAIR      23  12  61 SW13G21   29.99F WCI  12
6HR MIN TEMP:  23; 6HR MAX TEMP:  24;

WAUTOMA        FAIR      18  10  71 SW8       30.03F WCI   8
6HR MIN TEMP:  18; 6HR MAX TEMP:  21;

WISC RAPIDS    FAIR      20   9  62 W8        30.01F WCI  10
6HR MIN TEMP:  19; 6HR MAX TEMP:  21;

CAMP DOUGLAS   FAIR      23  13  65 W10       30.03F WCI  12
6HR MIN TEMP:  21; 6HR MAX TEMP:  23;

$$

WIZ011>013-019>022-031-037>040-048>050-180700-
NORTHEAST WISCONSIN

CITY           SKY/WX    TMP DP  RH WIND       PRES   REMARKS
ANTIGO         FAIR      19  11  73 W12       29.90F WCI   6
6HR MIN TEMP:  19; 6HR MAX TEMP:  20;

SHAWANO        FAIR      24  13  62 SW7       29.95F WCI  16
6HR MIN TEMP:  24; 6HR MAX TEMP:  25;

OCONTO         FAIR      21  10  62 SW7       29.95F WCI  13
6HR MIN TEMP:  21; 6HR MAX TEMP:  24;

STURGEON BAY   FAIR      21  11  65 SW16      29.95F WCI   7
6HR MIN TEMP:  21; 6HR MAX TEMP:  22; 6HR PCP: TRACE;

GREEN BAY      FAIR      19   9  65 SW7       29.98F WCI  10
6HR MIN TEMP:  19; 6HR MAX TEMP:  21;

MANITOWOC      FAIR      20  10  65 W14G23    30.01S WCI   7
6HR MIN TEMP:  20; 6HR MAX TEMP:  21; 6HR PCP: TRACE;

APPLETON       FAIR      19   9  63 SW14      29.97F WCI   6
CLINTONVILLE   FAIR      23  10  58 W6        29.98S WCI  16
OSHKOSH        FAIR      20  10  65 SW7G18    30.01F WCI  11
6HR MIN TEMP:  19; 6HR MAX TEMP:  21;

$$

WIZ032>034-041-042-053>061-180700-
SOUTHWEST WISCONSIN

CITY           SKY/WX    TMP DP  RH WIND       PRES   REMARKS
LA CROSSE      FAIR      21  12  68 SW7       30.10F WCI  12
6HR MIN TEMP:  19; 6HR MAX TEMP:  23;

SPARTA         FAIR      23  14  69 W8        30.07F WCI  13
6HR MIN TEMP:  21; 6HR MAX TEMP:  23;

VIROQUA        FAIR      20  13  76 W17       30.07F WCI   5
6HR MIN TEMP:  19; 6HR MAX TEMP:  20;

BOSCOBEL       FAIR      21   9  59 SW12      30.16F WCI   9
6HR MIN TEMP:  19; 6HR MAX TEMP:  22;

PRAIRIE DU CHI FAIR      20   8  60 SW7       30.18S WCI  11
6HR MIN TEMP:  19; 6HR MAX TEMP:  22;

PLATTEVILLE    FAIR      20  11  68 SW15      30.17S WCI   6
6HR MIN TEMP:  18; 6HR MAX TEMP:  20;

$$

WIZ056-057-062-063-064-067-068-180700-
SOUTH CENTRAL WISCONSIN

CITY           SKY/WX    TMP DP  RH WIND       PRES   REMARKS
REEDSBURG      FAIR      20  10  65 SW14G20   30.07F WCI   7
6HR MIN TEMP:  19; 6HR MAX TEMP:  20;

BARABOO/DELLS  FAIR      20  10  64 SW15      30.05F WCI   6
6HR MIN TEMP:  19; 6HR MAX TEMP:  20;

LONE ROCK      FAIR      17   9  70 W3        30.13F
6HR MIN TEMP:  17; 6HR MAX TEMP:  20;

MINERAL POINT  FAIR      21  12  68 W14G20    30.11F WCI   8
MADISON        FAIR      19   9  65 SW7       30.10F WCI  10
6HR MIN TEMP:  18; 6HR MAX TEMP:  19;

MIDDLETON      FAIR      22  11  62 W14G22    30.09F WCI   9
6HR MIN TEMP:  20; 6HR MAX TEMP:  22;

WATERTOWN      FAIR      18  10  70 SW10      30.09F WCI   6
6HR MIN TEMP:  16; 6HR MAX TEMP:  18;

MONROE         FAIR      19  10  68 SW20      30.13S WCI   4
JANESVILLE     FAIR      21  10  63 SW13      30.15F WCI   9
$$

WIZ051-052-058>065-066-070>072-180700-
SOUTHEAST WISCONSIN

CITY           SKY/WX    TMP DP  RH WIND       PRES   REMARKS
MILWAUKEE      FAIR      20  10  65 W15G28    30.07F WCI   6
6HR MIN TEMP:  19; 6HR MAX TEMP:  20;

WAUKESHA       FAIR      18   9  68 W20G25    30.07F WCI   1
MILWAUKEE/TIMM FAIR      21   9  58 W21G29    30.07S WCI   6
RACINE         FAIR      19  10  68 W16G28    30.10F WCI   4
6HR MIN TEMP:  17; 6HR MAX TEMP:  19; 6HR PCP: TRACE;

BURLINGTON     FAIR      17   9  70 SW16G24   30.12F WCI   2
6HR MIN TEMP:  16; 6HR MAX TEMP:  18;

KENOSHA        FAIR      18   9  68 W25G37    30.10F WCI   0
6HR MIN TEMP:  17; 6HR MAX TEMP:  18; 6HR PCP: TRACE;

FOND DU LAC    FAIR      19   8  62 SW14G23   30.03F WCI   6
6HR MIN TEMP:  19; 6HR MAX TEMP:  20;

SHEBOYGAN      FAIR      20  11  68 W17G29    30.02S WCI   5
6HR MIN TEMP:  19; 6HR MAX TEMP:  20;

WEST BEND      FAIR      19  10  68 W20G29    30.01F WCI   4
JUNEAU         FAIR      17   9  69 SW14      30.08F WCI   3
6HR MIN TEMP:  16; 6HR MAX TEMP:  18;

$$

LSZ147-162-180700-
LAKE SUPERIOR

STATION/POSITION TIME  TEMP    WIND        PRES    WAVE
                       AIR SEA DIR/SP/G            HT/PER
                 (UTC) (F)     (DEG/KT/KT) (MB)    (FT/S)
DEVILS ISLAND    0600   27     230/ 20/ 24 1011.4F
SAXON HARBOR     0540   25     200/  8/ 15 1011.9R
$$

LMZ867-665-643>646-180700-
LAKE MICHIGAN

STATION/POSITION TIME  TEMP    WIND        PRES    WAVE
                       AIR SEA DIR/SP/G            HT/PER



USA.gov is the U.S. government's official web portal to all federal, state and local government web resources and services.